Limerick, Ireland

5:56 PM GMT on February 24, 2017 (GMT +0000)
Shannon

Weather History for EINN - April, 2014

Change the Weather History Date:

Saturday, April 19, 2014

  Actual Average Record
Temperature  
Mean Temperature 52 °F -  
Max Temperature 61 °F 58 °F 68 °F (2011)
Min Temperature 44 °F 44 °F 32 °F (2005)
Degree Days  
Heating Degree Days 12    
Growing Degree Days 2 (Base 50)    
Moisture  
Dew Point 43 °F    
Average Humidity 71    
Maximum Humidity 100    
Minimum Humidity 34    
Precipitation  
Precipitation 0.00 in 0.08 in - ()
Sea Level Pressure  
Sea Level Pressure 30.04 in    
Wind  
Wind Speed 6 mph ()    
Max Wind Speed 14 mph    
Max Gust Speed -    
Visibility 7.5 miles    
Events Fog    
Averages and records for this station are not official NWS values.
T = Trace of Precipitation, MM = Missing Value Source: Averaged Metar Reports

Daily Weather History Graph

Daily Weather History Graph

Search for Another Location

Airport or City:

Trip Planner

Search our weather history database for the weather conditions in past years. The results will help you decide how hot, cold, wet, or windy it might be!

Date:

Astronomy

Apr. 19, 2014 Rise Set
Actual Time 6:29 AM IST 8:41 PM IST
Civil Twilight 5:51 AM IST 9:19 PM IST
Nautical Twilight 5:05 AM IST 10:06 PM IST
Astronomical Twilight 4:10 AM IST 11:01 PM IST
Moon 12:30 AM IST (4/19) 9:15 AM IST (4/19)
Length of Visible Light 15h 27m
Length of Day
14h 12m
Waning Gibbous, 81% of the Moon is Illuminated
Apr 19
Waning Gibbous
Apr 22
Last Quarter
Apr 29
New
May 7
First Quarter
May 14
Full

Hourly Weather History & Observations

Time (IST) Temp. Windchill Dew Point Humidity Pressure Visibility Wind Dir Wind Speed Gust Speed Precip Events Conditions
12:00 AM 50 °F - 46 °F 83% 30.14 in 12 mi WSW 6.7 mph - -   Mostly Cloudy
12:00 AM 50.0 °F - 46.4 °F 87% 30.12 in 6.2 mi WSW 6.9 mph - N/A   Mostly Cloudy
12:30 AM 50.0 °F - 46.4 °F 87% 30.12 in 6.2 mi WSW 4.6 mph - N/A   Mostly Cloudy
1:00 AM 50 °F - 47 °F 85% 30.13 in 12 mi West 2.2 mph - -   Partly Cloudy
1:00 AM 50.0 °F - 46.4 °F 87% 30.12 in 6.2 mi West 2.3 mph - N/A   Mostly Cloudy
1:30 AM 50.0 °F - 46.4 °F 87% 30.12 in 6.2 mi WSW 3.5 mph - N/A   Mostly Cloudy
2:00 AM 49 °F - 47 °F 88% 30.12 in 12 mi West 2.2 mph - -   Scattered Clouds
2:00 AM 50.0 °F - 46.4 °F 87% 30.12 in 6.2 mi West 1.2 mph - N/A   Mostly Cloudy
2:30 AM 48.2 °F - 46.4 °F 93% 30.09 in 6.2 mi Calm Calm - N/A   Mostly Cloudy
3:00 AM 47 °F - 45 °F 92% 30.10 in 12 mi NNE 2.2 mph - -   Scattered Clouds
3:00 AM 48.2 °F - 44.6 °F 87% 30.09 in 6.2 mi NNE 1.2 mph - N/A   Scattered Clouds
3:30 AM 46.4 °F - 44.6 °F 93% 30.09 in 6.2 mi Calm Calm - N/A   Partly Cloudy
4:00 AM 46 °F - 44 °F 90% 30.09 in 10 mi Calm Calm - - Fog Patches of Fog
4:00 AM 46.4 °F - 44.6 °F 93% 30.06 in 6.2 mi Calm Calm - N/A Fog Shallow Fog
4:30 AM 46.4 °F 45.2 °F 44.6 °F 93% 30.06 in 6.2 mi East 3.5 mph - N/A Fog Shallow Fog
5:00 AM 46 °F - 45 °F 95% 30.08 in 7 mi ESE 4.5 mph - - Fog Patches of Fog
5:00 AM 46.4 °F 44.3 °F 44.6 °F 93% 30.06 in 6.2 mi ESE 4.6 mph - N/A Fog Shallow Fog
5:30 AM 46.4 °F 44.3 °F 46.4 °F 100% 30.06 in 6.2 mi East 4.6 mph - N/A Fog Shallow Fog
6:00 AM 47 °F - 46 °F 94% 30.07 in 7 mi ESE 6.7 mph - -   Mist
6:00 AM 48.2 °F - 46.4 °F 93% 30.06 in 6.2 mi ESE 5.8 mph - N/A   Mostly Cloudy
6:30 AM 46.4 °F 43.5 °F 44.6 °F 93% 30.06 in 3.7 mi ESE 5.8 mph - N/A   Overcast
7:00 AM 47 °F - 45 °F 92% 30.08 in 5 mi SE 6.7 mph - -   Mist
7:00 AM 46.4 °F 42.9 °F 44.6 °F 93% 30.06 in 5.0 mi SE 6.9 mph - N/A   Mostly Cloudy
7:30 AM 46.4 °F 44.3 °F 44.6 °F 93% 30.06 in 5.6 mi ESE 4.6 mph - N/A   Mostly Cloudy
8:00 AM 47 °F - 44 °F 87% 30.08 in 6 mi East 4.5 mph - -   Mist
8:00 AM 46.4 °F 44.3 °F 44.6 °F 93% 30.06 in 5.6 mi East 4.6 mph - N/A   Mostly Cloudy
8:30 AM 46.4 °F 43.5 °F 44.6 °F 93% 30.06 in 6.2 mi East 5.8 mph - N/A   Mostly Cloudy
9:00 AM 48 °F - 44 °F 83% 30.08 in 9 mi East 6.7 mph - -   Mist
9:00 AM 48.2 °F - 44.6 °F 87% 30.06 in 6.2 mi East 5.8 mph - N/A   Scattered Clouds
9:30 AM 50.0 °F - 44.6 °F 82% 30.06 in 6.2 mi ESE 9.2 mph - N/A   Partly Cloudy
10:00 AM 50 °F - 44 °F 74% 30.07 in 11 mi ESE 8.9 mph - -   Scattered Clouds
10:00 AM 50.0 °F - 44.6 °F 82% 30.06 in 6.2 mi ESE 9.2 mph - N/A   Partly Cloudy
10:30 AM 51.8 °F - 44.6 °F 76% 30.06 in 6.2 mi East 8.1 mph - N/A   Mostly Cloudy
11:00 AM 52 °F - 42 °F 61% 30.06 in 19 mi East 8.9 mph - -   Scattered Clouds
11:00 AM 51.8 °F - 42.8 °F 71% 30.04 in 6.2 mi East 8.1 mph - N/A   Scattered Clouds
11:30 AM 53.6 °F - 39.2 °F 58% 30.04 in 6.2 mi East 6.9 mph - N/A   Scattered Clouds
12:00 PM 55 °F - 37 °F 40% 30.05 in 25 mi East 6.7 mph - -   Scattered Clouds
12:00 PM 55.4 °F - 37.4 °F 51% 30.04 in 6.2 mi East 6.9 mph - N/A   Scattered Clouds
12:30 PM 57.2 °F - 39.2 °F 51% 30.04 in 6.2 mi East 6.9 mph - N/A   Scattered Clouds
1:00 PM 58 °F - 40 °F 40% 30.04 in 31 mi SE 6.7 mph - -   Scattered Clouds
1:00 PM 57.2 °F - 41.0 °F 55% 30.04 in 6.2 mi SE 6.9 mph - N/A   Scattered Clouds
1:30 PM 57.2 °F - 41.0 °F 55% 30.01 in 6.2 mi East 9.2 mph - N/A   Scattered Clouds
2:00 PM 58 °F - 43 °F 46% 30.02 in 25 mi ESE 8.9 mph - -   Partly Cloudy
2:00 PM 59.0 °F - 42.8 °F 55% 30.01 in 6.2 mi ESE 8.1 mph - N/A   Scattered Clouds
2:30 PM 59.0 °F - 41.0 °F 51% 30.01 in 6.2 mi SE 9.2 mph - N/A   Scattered Clouds
3:00 PM 60 °F - 39 °F 34% 30.01 in 25 mi ESE 8.9 mph - -   Partly Cloudy
3:00 PM 60.8 °F - 39.2 °F 45% 30.01 in 6.2 mi ESE 8.1 mph - N/A   Mostly Cloudy
3:30 PM 60.8 °F - 39.2 °F 45% 30.01 in 6.2 mi ESE 6.9 mph - N/A   Mostly Cloudy
4:00 PM 60 °F - 40 °F 37% 29.99 in 25 mi SE 8.9 mph - -   Partly Cloudy
4:00 PM 60.8 °F - 41.0 °F 48% 29.98 in 6.2 mi SE 9.2 mph - N/A   Mostly Cloudy
4:30 PM 59.0 °F - 41.0 °F 51% 29.98 in 6.2 mi SE 6.9 mph - N/A   Mostly Cloudy
5:00 PM 60 °F - 42 °F 41% 29.98 in 22 mi SE 11.2 mph - -   Scattered Clouds
5:00 PM 60.8 °F - 42.8 °F 52% 29.98 in 6.2 mi SE 10.4 mph - N/A   Mostly Cloudy
5:30 PM 60.8 °F - 42.8 °F 52% 29.98 in 6.2 mi SE 8.1 mph - N/A   Mostly Cloudy
6:00 PM 59 °F - 42 °F 42% 29.98 in 25 mi SE 13.4 mph - -   Scattered Clouds
6:00 PM 59.0 °F - 42.8 °F 55% 29.98 in 6.2 mi SE 13.8 mph - N/A   Mostly Cloudy
6:30 PM 59.0 °F - 42.8 °F 55% 29.98 in 6.2 mi SSE 12.7 mph - N/A   Mostly Cloudy
7:00 PM 57 °F - 42 °F 47% 29.98 in 22 mi SSE 11.2 mph - -   Scattered Clouds
7:00 PM 57.2 °F - 42.8 °F 59% 29.98 in 6.2 mi SSE 11.5 mph - N/A   Mostly Cloudy
7:30 PM 55.4 °F - 42.8 °F 63% 29.98 in - SSE 11.5 mph - N/A   Clear
8:00 PM 54 °F - 42 °F 53% 29.99 in 25 mi SSE 11.2 mph - -   Partly Cloudy
8:00 PM 55.4 °F - 42.8 °F 63% 29.98 in 6.2 mi SSE 10.4 mph - N/A   Mostly Cloudy
8:30 PM 53.6 °F - 41.0 °F 62% 29.98 in 6.2 mi SSE 12.7 mph - N/A   Mostly Cloudy
9:00 PM 52 °F - 41 °F 55% 30.00 in 19 mi SE 11.2 mph - -   Partly Cloudy
9:00 PM 51.8 °F - 41.0 °F 67% 29.98 in 6.2 mi SE 10.4 mph - N/A   Mostly Cloudy
9:30 PM 51.8 °F - 41.0 °F 67% 30.01 in - SE 9.2 mph - N/A   Clear
10:00 PM 50 °F - 41 °F 61% 30.02 in 16 mi SE 11.2 mph - -   Scattered Clouds
10:00 PM 50.0 °F - 41.0 °F 71% 30.01 in - SE 10.4 mph - N/A   Clear
10:30 PM 50.0 °F - 41.0 °F 71% 30.01 in - SE 10.4 mph - N/A   Clear
11:00 PM 48 °F - 40 °F 66% 30.03 in 16 mi SSE 8.9 mph - -   Clear
11:00 PM 48.2 °F - 41.0 °F 76% 30.01 in - SSE 9.2 mph - N/A   Clear
11:30 PM 48.2 °F - 41.0 °F 76% 30.01 in - SE 8.1 mph - N/A   Clear